User: anonymous   Login
Location: Unspecified
(0.0000°N, 0.0000°E)
Time: 04:03:29
(UTC+02:00)
Language:

Iridium 75 - Orbit

View from above orbital plane
View from above orbital plane
View from above satellite
View from above satellite

Ground track
Ground track

The orbit data is extracted from the following two-line orbital elements,

1 25346U 98032E   15089.48517873  .00000813  00000-0  28320-3 0  9998
2 25346 086.4014 202.5248 0002197 099.2756 351.5405 14.34217127883616
Epoch (UTC): 30 March 2015 11:38:39
Eccentricity: 0.0002197
inclination: 86.4014°
perigee height: 776 km
apogee height: 779 km
right ascension of ascending node: 202.5248°
argument of perigee: 99.2756°
revolutions per day: 14.34217127
mean anomaly at epoch: 351.5405°
orbit number at epoch: 88361

The dashed part of the orbit path shows where the satellite is in the earth's shadow,  

DLR